Southern Junior High School, Massachusetts, United States
Lat: 42.38N, Lon: 71.1W
Wx Zone: MAZ014
Local Info
Past Weather Observations for Today

NOTE: This archive is for the closest National Weather Service station to Southern Junior High School. Information may differ from the station used for current weather conditions.

Click here for Long-term Archive

Time Weather Temperature Dewpoint Humidity Pressure Winds Precip Visibility
22:54
Clear
63°F / 17°C 48°F / 9°C 59% 30.42 in
(1030 mb)
NW 8.1 mph
(NW 13 kph)
- 10SM
21:54
Partly Cloudy
63°F / 17°C 48°F / 9°C 59% 30.42 in
(1030 mb)
NW 4.6 mph
(NW 7 kph)
- 10SM
20:54
Partly Cloudy
63°F / 17°C 46°F / 8°C 56% 30.39 in
(1029 mb)
NW 6.9 mph
(NW 11 kph)
- 10SM
19:54
Partly Cloudy
64°F / 18°C 46°F / 8°C 52% 30.36 in
(1028 mb)
NW 6.9 mph
(NW 11 kph)
- 10SM
18:54
Partly Cloudy
66°F / 19°C 45°F / 7°C 46% 30.33 in
(1027 mb)
WNW 5.8 mph
(WNW 9 kph)
- 10SM
17:54
Partly Cloudy
66°F / 19°C 45°F / 7°C 46% 30.3 in
(1026 mb)
SSW 10.4 mph
(SSW 17 kph)
- 10SM
16:54
Partly Cloudy
70°F / 21°C 45°F / 7°C 40% 30.27 in
(1025 mb)
W 12.7 mph
(W 20 kph)
- 10SM
15:54
Partly Cloudy
72°F / 22°C 43°F / 6°C 36% 30.27 in
(1025 mb)
WNW 13.8 mph
(WNW 22 kph)
- 10SM
14:54
Partly Cloudy
72°F / 22°C 43°F / 6°C 36% 30.27 in
(1025 mb)
W 8.1 mph
(W 13 kph)
- 10SM
13:54
Partly Cloudy
70°F / 21°C 41°F / 5°C 35% 30.27 in
(1025 mb)
NW 8.1 mph
(NW 13 kph)
- 10SM
12:54
Partly Cloudy
68°F / 20°C 41°F / 5°C 38% 30.27 in
(1025 mb)
Variable 5.8 mph
(Variable 9 kph)
- 10SM
11:54
Partly Cloudy
66°F / 19°C 39°F / 4°C 37% 30.27 in
(1025 mb)
SSW 9.2 mph
(SSW 15 kph)
- 10SM
10:54
Partly Cloudy
63°F / 17°C 39°F / 4°C 42% 30.27 in
(1025 mb)
SSW 5.8 mph
(SSW 9 kph)
- 10SM
09:54
Partly Cloudy
61°F / 16°C 39°F / 4°C 45% 30.27 in
(1025 mb)
SSW 5.8 mph
(SSW 9 kph)
- 10SM
08:54
Partly Cloudy
57°F / 14°C 39°F / 4°C 51% 30.27 in
(1025 mb)
W 4.6 mph
(W 7 kph)
- 10SM
07:54
Partly Cloudy
55°F / 13°C 39°F / 4°C 55% 30.27 in
(1025 mb)
SW 4.6 mph
(SW 7 kph)
- 10SM
06:54
Partly Cloudy
54°F / 12°C 39°F / 4°C 58% 30.24 in
(1024 mb)
SW 5.8 mph
(SW 9 kph)
- 10SM
05:54
Partly Cloudy
52°F / 11°C 37°F / 3°C 58% 30.21 in
(1023 mb)
W 5.8 mph
(W 9 kph)
- 10SM
04:54
Partly Cloudy
52°F / 11°C 37°F / 3°C 58% 30.21 in
(1023 mb)
NW 4.6 mph
(NW 7 kph)
- 10SM
03:54
Clear
50°F / 10°C 39°F / 4°C 67% 30.18 in
(1022 mb)
WNW 5.8 mph
(WNW 9 kph)
- 10SM
02:54
Clear
52°F / 11°C 37°F / 3°C 58% 30.15 in
(1021 mb)
WNW 8.1 mph
(WNW 13 kph)
- 10SM
01:54
Clear
52°F / 11°C 37°F / 3°C 58% 30.15 in
(1021 mb)
WNW 5.8 mph
(WNW 9 kph)
- 10SM
00:54
Clear
54°F / 12°C 37°F / 3°C 54% 30.12 in
(1020 mb)
SSW 4.6 mph
(SSW 7 kph)
- 10SM
Time Weather Temperature Dewpoint Humidity Pressure Winds Precip Visibility


Weather for websites

WeatherForYou.com, LLC is not responsible for any damages or problems caused by this service. Current weather conditions are obtained from the closest station including government and personal stations which may have varying degrees of accuracy. Weather forecasts are derived from the NOAA NDFD. Like all things, this site belongs to Jesus Christ... He just trusts me to maintain it. If you have any questions or comments email webmaster@weatherforyou.com

Copyright © 2014, WeatherForYou.com LLC. All rights reserved.